Flag for Germany Weather past 2 weeks in Rheda-Wiedenbrück, North Rhine-Westphalia, Germany

Now
39 °F

Passing clouds.


Feels Like: 30 °F
Forecast: 41 / 45 °F
Wind: 16 mph from Southwest

Location: Paderborn / Lippstadt

Current Time: Mar 26, 2015 at 11:37:04 PM

Latest Report: Mar 26, 2015 at 11:20 PM


Visibility: N/A

Pressure: 29.74 "Hg

Humidity: 81%

Dew point: 34 °F

Location of Rheda-WiedenbrückLocation

Historic Weather in Rheda-Wiedenbrück — Graph

°F

Rheda-Wiedenbrück temperature yesterday

Maximum temperature yesterday: 59 °F (at 1:20 PM)
Minimum temperature yesterday: 39 °F (at 11:50 PM)
Average temperature yesterday: 46 °F

Past Weeks' High & Low Weather Summary

 TemperatureHumidityPressure
High59 °F (Mar 17, 3:20 PM)100% (Mar 11, 11:20 PM)30.48 "Hg (Mar 11, 11:20 PM)
Low27 °F (Mar 12, 2:20 AM)41% (Mar 25, 11:50 AM)29.62 "Hg (Mar 25, 6:20 AM)
Average41 °F84%30.15 "Hg
* Reported Mar 11 10:50 PM — Mar 26 10:20 PM, Rheda-Wiedenbrück, Weather by CustomWeather, © 2015

Note: Actual official high and low records may vary slightly from our data, if they occured in-between our weather recording intervals... More about our weather records

Advertising

Rheda-Wiedenbrück weather history for previous 24 hours

 ConditionsComfort  
Time TempWeatherWind HumidityBarometerVisibility
10:20 PM
Thu, Mar 26
39 °FPassing clouds.16 mph75%29.71 "HgN/A
9:50 PM39 °FPassing clouds.13 mph75%29.74 "HgN/A
9:20 PM39 °FPassing clouds.12 mph81%29.74 "HgN/A
8:50 PM39 °FLight rain. Passing clouds.9 mph81%29.74 "HgN/A
8:20 PM39 °FLight rain. Passing clouds.6 mph81%29.74 "HgN/A
7:50 PM39 °FLight rain. Passing clouds.6 mph87%29.74 "HgN/A
7:20 PM37 °FLight rain. Passing clouds.6 mph93%29.74 "HgN/A
6:50 PM39 °FLight rain. Partly cloudy.7 mph87%29.74 "Hg4 mi
6:20 PM39 °FSprinkles. Broken clouds.9 mph81%29.74 "Hg4 mi
5:50 PM43 °FSprinkles. Broken clouds.12 mph61%29.71 "Hg4 mi
5:20 PM45 °FPassing clouds.8 mph57%29.71 "HgN/A
4:50 PM45 °FPassing clouds.10 mph49%29.71 "HgN/A
4:20 PM45 °FScattered clouds.12 mph49%29.71 "HgN/A
3:50 PM45 °FScattered clouds.9 mph53%29.71 "HgN/A
3:20 PM45 °FPartly sunny.9 mph57%29.71 "Hg6 mi
2:50 PM45 °FPartly sunny.8 mph57%29.74 "Hg5 mi
2:20 PM43 °FPartly sunny.7 mph71%29.74 "Hg5 mi
1:50 PM43 °FPartly sunny.3 mph71%29.74 "Hg5 mi
1:20 PM39 °FPartly sunny.5 mph81%29.74 "Hg5 mi
12:50 PM39 °FPartly sunny.5 mph81%29.77 "Hg5 mi
12:20 PM41 °FPartly sunny.7 mph70%29.77 "Hg5 mi
11:50 AM41 °FPartly sunny.8 mph76%29.77 "Hg5 mi
11:20 AM39 °FPartly sunny.9 mph81%29.77 "Hg5 mi
10:50 AM39 °FPartly sunny.7 mph81%29.77 "Hg5 mi
10:20 AM39 °FPartly sunny.6 mph81%29.77 "Hg5 mi
9:50 AM39 °FPartly sunny.5 mph81%29.77 "Hg6 mi
9:20 AM39 °FPartly sunny.5 mph81%29.77 "Hg6 mi
8:50 AM39 °FPartly sunny.5 mph81%29.77 "Hg6 mi
8:20 AM37 °FPartly sunny.3 mph87%29.77 "HgN/A
7:50 AM37 °FPartly sunny.5 mph93%29.77 "HgN/A
7:20 AM37 °FPartly sunny.3 mph81%29.77 "HgN/A
6:50 AM37 °FPartly sunny.3 mph81%29.77 "HgN/A
6:20 AM37 °FScattered clouds.3 mph81%29.77 "HgN/A
5:50 AM37 °FPassing clouds.6 mph81%29.74 "HgN/A
5:20 AM37 °FPartly cloudy.6 mph81%29.74 "HgN/A
4:50 AM37 °FPartly cloudy.9 mph81%29.74 "HgN/A
4:20 AM37 °FPartly cloudy.7 mph87%29.74 "HgN/A
3:50 AM37 °FPartly cloudy.9 mph87%29.74 "HgN/A
3:20 AM39 °FPassing clouds.7 mph81%29.74 "HgN/A
11:50 PM
Wed, Mar 25
39 °FPartly cloudy.8 mph87%29.74 "Hg5 mi
11:20 PM41 °FPartly cloudy.8 mph81%29.74 "Hg5 mi
Weather by CustomWeather, © 2015

See weather overviewHow to use our weather pages